Погода в Отрадном

Россия / Калининградская область     54°56′33″N   20°06′01″E
темп.,
°C
ветер,
м/с
пор.,
м/с
влажн.,
%
обл.,
%
осадки,
мм/ч
давл.,
гПа
погр.,
м
24 января, пн
пн2423:00+2ююз7881100 0.0 1031258
02:00+2ююз8983100 0.0 1032301
05:00+2ююз91091100 0.1 1031339
08:00+3ююз101193100 0.3 1031340
11:00+3юз101295100 0.2 1030324
14:00+3юз101297100 0.4 1029422
17:00+4зюз91397100 0.1 1029339
20:00+4зюз101595100 0.2 1027401
25 января, вт
вт2523:00+4з101492100 0.2 1026457
02:00+4з101491100 0.4 1025449
05:00+4з11159095 0.0 1024487
08:00+4зсз111493100 0.1 1022440
11:00+4зсз91196100 0.1 1022319
14:00+4сз6896100 0.4 1023229
17:00+4с57946 0.1 1024200
20:00+3ссв89838 0.1 1025444
26 января, ср
ср2623:00+3ссв567518 0.0 1026566
02:00+2св3271100 0.0 1026428
05:00+2ю21715 0.0 1025268
08:00+2ююз55795 0.0 1023456
11:00+3юз7887100 0.1 1022542
14:00+3юз91398100 0.6 1019697
17:00+4зюз131691100 0.5 1016623
20:00+4з131992100 0.9 1014759
27 января, чт
чт2723:00+4з12178898 0.5 1013436
02:00+4з101487100 0.7 1012419
05:00+4з111593100 0.3 1010456
08:00+4зюз111592100 0.4 1007656
11:00+3юз121798100 3.3 1004878
14:00+4зюз142194100 5.2 1000850
17:00+4з192488100 0.6 997896
20:00+4з182285100 0.8 996984
28 января, пт
пт2823:00+3зюз192588100 0.1 9941265
02:00+3з141697100 2.2 993759
05:00+3сз111393100 0.3 995654
08:00+2ссз172197100 1.6 10001210
11:00+3ссз16198397 0.4 10061231
14:00+3ссз15178497 0.6 10111187
17:00+3ссз141682100 0.1 10151503
20:00+3ссз121481100 0.5 10181287